Location: Terra Rouge Observatory
(46.0000°N, 62.7500°W)
Time: 22:50:40
(UTC-03:00)

Daily predictions for brighter satellites

Satellite Brightness Start Highest point End
(mag) Time Altitude Azimuth Time Altitude Azimuth Time Altitude Azimuth
Cosmos 1656 3.7 20:15:02 10° S 20:20:33 63° ESE 20:26:02 10° NNE
FENGYUN 3A 3.7 20:16:31 10° SSE 20:21:48 65° ENE 20:27:07 10° N
Cosmos 2369 4.0 20:16:55 10° SSW 20:22:35 76° WNW 20:28:20 10° NNE
USA 186 2.0 20:22:23 10° SE 20:25:04 36° ENE 20:27:35 10° N
Spot 2 Rocket 4.2 20:21:24 10° S 20:26:24 58° WSW 20:31:26 10° NNW
ALOS 2.3 20:22:26 10° SSE 20:27:05 73° ENE 20:31:46 10° N
Cosmos 2123 Rocket 4.3 20:22:21 10° NNW 20:28:32 73° W 20:34:40 10° S
Resurs 1-3 4.2 20:28:18 10° S 20:32:38 61° W 20:37:00 10° NNW
Cosmos 1459 Rocket 4.5 20:27:48 10° SSE 20:33:18 38° E 20:38:53 10° NNE
H-2A R/B 2.8 20:29:44 10° SSE 20:33:37 68° ENE 20:37:34 10° N
Cosmos 1937 Rocket 3.6 20:28:44 10° NNW 20:34:01 70° ENE 20:39:18 10° SSE
Cosmos 2263 Rocket 3.8 20:30:37 10° N 20:34:26 18° NE 20:38:16 10° E
RESURS DK-1 2.4 20:32:15 10° NNW 20:36:25 88° WSW 20:40:34 10° SSE
Envisat 4.0 20:32:42 10° ESE 20:37:00 28° ENE 20:41:18 10° N
Cosmos 990 Rocket 4.1 20:34:46 10° NNW 20:39:59 59° ENE 20:45:08 10° SE
Cosmos 1666 4.4 20:39:03 12° ESE 20:40:32 15° E 20:42:42 10° NE
Cosmos 2227 Rocket 4.1 20:38:49 10° NW 20:43:42 30° WSW 20:48:33 10° SSW
EO 1 Delta rocket 4.0 20:39:34 10° NNE 20:44:23 79° E 20:50:02 10° S
CZ-4 DEB 3.7 20:42:06 13° SE 20:44:28 30° ENE 20:47:16 10° N
Cosmos 1606 Rocket 4.5 20:41:50 10° SSE 20:45:36 29° E 20:49:26 10° NNE
Tiangong 1 2.9 20:44:25 10° WSW 20:46:54 21° SSW 20:49:07 11° SSE
Cosmos 2058 Rocket 4.5 20:44:57 12° SE 20:47:49 21° E 20:51:09 10° NE
Cosmos 2322 Rocket 3.4 20:46:07 10° SE 20:50:06 20° E 20:54:05 10° NE
Cosmos 1500 3.1 20:47:53 10° S 20:51:38 79° E 20:55:26 10° NNE
Cosmos 1340 3.0 20:49:29 10° N 20:53:10 46° ENE 20:56:17 14° SSE
ERS-1 Rocket 3.3 20:49:01 10° SE 20:53:50 48° ENE 20:58:40 10° N
Cosmos 2297 Rocket 3.9 20:53:17 10° NW 20:58:15 32° WSW 21:03:12 10° SSW
CZ-2D R/B 4.1 20:57:40 10° S 21:01:27 52° W 21:05:17 10° NNW
Resurs 01 Rocket 4.1 21:00:51 10° SSW 21:04:23 23° W 21:07:58 10° NW
Cosmos 1763 Rocket 3.5 21:01:25 10° S 21:06:22 54° ESE 21:11:19 10° NNE
Cosmos 1975 4.1 21:02:59 10° SSW 21:06:56 45° WNW 21:10:54 10° N
Cosmos 1726 Rocket 4.0 21:03:18 10° SSE 21:07:23 40° E 21:11:32 10° NNE
USA 215 4.4 21:05:53 10° ENE 21:11:45 37° N 21:17:36 10° NW
Cosmos 2360 4.3 21:06:27 10° S 21:11:59 54° ESE 21:17:34 10° NE
Cosmos 2227 4.2 21:07:26 10° NNW 21:13:13 89° WSW 21:18:01 15° SSE
H-2A R/B 3.9 21:13:50 11° ENE 21:15:14 12° NE 21:17:13 10° NNE
Cosmos 1825 Rocket 3.6 21:15:53 10° N 21:20:19 82° W 21:24:23 12° S
Meteor 1-21 4.2 21:14:56 10° N 21:20:45 84° E 21:26:15 12° SSE
ASTEX 1 3.9 21:18:41 10° NNE 21:23:24 40° E 21:25:43 25° SE
Cosmos 1802 Rocket 4.0 21:17:16 10° S 21:23:41 78° E 21:30:08 10° N
Cosmos 1125 Rocket 3.6 21:20:13 10° NNW 21:25:23 61° ENE 21:28:11 27° SE
Cosmos 2016 Rocket 3.9 21:19:45 10° S 21:25:50 69° E 21:32:02 10° NNE
Cosmos 405 Rocket 3.8 21:26:01 10° NNE 21:29:11 26° ENE 21:29:16 26° ENE
Cosmos 2228 3.5 21:31:32 35° ESE 21:32:22 38° E 21:36:22 10° NNE
Cosmos 841 Rocket 3.4 21:27:16 10° SSW 21:32:30 81° ESE 21:37:43 10° NNE
Cosmos 1953 Rocket 3.6 21:28:47 10° N 21:33:16 82° W 21:36:27 19° S
Cosmos 1697 Rocket 3.6 21:27:49 10° SW 21:33:19 51° WNW 21:38:49 10° NNE
Cosmos 540 Rocket 4.1 21:32:24 30° SE 21:33:28 33° ESE 21:38:03 10° NE
SPOT 1/Viking Rocket 4.3 21:32:39 28° ESE 21:34:23 35° ENE 21:39:05 10° N
H-2A R/B 1.9 21:35:01 36° SE 21:36:31 64° ENE 21:40:41 10° N
Cosmos 2173 Rocket 4.2 21:31:09 10° SSW 21:37:30 75° W 21:43:50 10° N
Cosmos 1743 3.5 21:34:35 10° SSW 21:38:26 54° WNW 21:42:17 10° N
Cosmos 332 Rocket 4.2 21:38:26 35° SE 21:39:28 39° ESE 21:44:03 10° NE
ARGOS 3.8 21:38:52 30° ESE 21:40:36 38° ENE 21:45:32 10° N
Cosmos 371 Rocket 4.4 21:42:19 25° ENE 21:42:19 25° ENE 21:45:19 10° NE
Cosmos 2098 Rocket 3.7 21:34:52 10° S 21:41:21 68° E 21:46:32 10° NNE
MetOp-B 4.2 21:44:18 34° SE 21:46:35 64° ENE 21:51:54 10° N
Lacrosse 5 4.1 21:43:57 10° W 21:47:14 17° WSW 21:50:29 10° SSW
Cosmos 1939 Rocket 3.4 21:46:28 23° S 21:48:56 58° W 21:53:04 10° NNW
SL-16 R/B 2.2 21:43:29 10° S 21:48:59 55° ESE 21:54:33 10° NE
Cosmos 1758 Rocket 3.9 21:47:03 10° NNW 21:51:21 61° W 21:53:44 25° SSW
Cosmos 372 Rocket 4.0 21:46:37 10° NNW 21:51:44 63° ENE 21:53:16 43° SE
Cosmos 1864 Rocket 4.3 21:49:59 17° S 21:54:50 75° E 22:00:59 10° NNE
Cosmos 1980 Rocket 3.0 21:52:41 10° SW 21:58:13 52° WNW 22:03:49 10° NNE
Cosmos 2360 Rocket 3.6 22:00:51 22° ENE 22:00:51 22° ENE 22:03:33 10° NE
SPOT 5 2.8 21:57:22 40° SSE 21:59:11 89° W 22:03:53 10° NNW
CZ-4 SHROUD 4.4 22:01:27 33° NNE 22:01:27 33° NNE 22:03:25 10° N
Terra 3.1 22:08:11 27° ENE 22:08:11 27° ENE 22:12:01 10° N
YAOGAN 6 2.6 22:08:22 84° W 22:08:22 84° W 22:12:06 10° NNW
deb Chang Zheng 4 3.6 22:04:12 10° NNE 22:08:41 82° WNW 22:10:32 35° SSW
Tsikada Rocket 4.1 22:03:32 10° N 22:09:58 77° W 22:13:33 28° S
GP-B 4.4 22:10:25 10° NNE 22:13:12 28° NE 22:13:12 28° NE
Envisat 4.1 22:12:39 19° SSW 22:15:50 41° W 22:20:39 10° NNW
Cosmos 1666 3.8 22:13:59 23° SW 22:15:52 41° WNW 22:19:30 10° N
CZ-4B R/B 4.0 22:13:32 10° NNE 22:17:10 41° ENE 22:17:10 41° ENE
Cosmos 2263 Rocket 2.0 22:13:35 10° NNW 22:19:12 89° ENE 22:20:21 58° SSE
Cosmos 1707 3.9 22:17:04 10° N 22:19:40 34° NNE 22:19:40 34° NNE
Cosmos 2058 Rocket 4.3 22:22:10 15° SW 22:25:31 41° WNW 22:29:49 10° N
SL-08 RB Rocket 3.6 22:26:15 74° ENE 22:26:15 74° ENE 22:30:49 10° N
Cosmos 1725 Rocket 4.4 22:23:01 13° SSW 22:28:33 62° WNW 22:34:46 10° N
BREEZE-M DEB (TANK) 3.8 22:11:16 10° WNW 22:31:10 77° SSW 22:32:51 53° SE
Cosmos 2322 Rocket 2.5 22:28:00 10° SW 22:33:35 66° WNW 22:39:12 10° NNE
Cosmos 2322 4.3 22:45:17 44° ENE 22:45:17 44° ENE 22:49:24 10° NNE
SL-19 R/B 4.2 22:42:02 10° NNE 22:47:28 76° WNW 22:48:19 61° SW
Cosmos 2233 Rocket 4.2 22:46:04 39° SSW 22:48:29 70° W 22:54:46 10° N
Cosmos 1072 Rocket 4.4 22:49:24 64° E 22:49:24 64° E 22:55:27 10° NNE
H-2A R/B 2.1 22:54:29 69° N 22:54:29 69° N 22:58:49 10° NNW
USA 215 3.4 22:52:31 50° E 22:54:07 65° NNE 23:00:36 10° NW
Cosmos 1538 Rocket 4.5 22:56:59 53° NE 22:56:59 53° NE 23:01:07 10° NNE
Meteor 2-5 Rocket 4.0 22:50:46 10° NNW 22:56:37 65° W 22:57:20 60° SW
Cosmos 1812 Rocket 4.4 22:58:18 48° NNW 22:58:18 48° NNW 23:01:43 10° N
Meteor 1-24 Rocket 3.7 22:53:45 10° N 22:59:50 82° ENE 22:59:50 82° ENE
COSMOS 2428 4.2 23:12:30 26° NE 23:12:30 26° NE 23:15:02 10° NE
Cosmos 2278 Rocket 3.4 23:10:25 10° NNW 23:15:11 32° NE 23:15:11 32° NE
Cosmos 2034 Rocket 4.1 23:19:37 64° NE 23:19:37 64° NE 23:25:01 10° NNE
ARGOS 4.3 23:20:24 33° WSW 23:20:52 33° W 23:25:44 10° NNW
Cosmos 1844 Rocket 3.1 23:24:11 10° NNW 23:28:41 57° N 23:28:41 57° N
SL-16 R/B 4.0 23:28:37 10° WSW 23:33:26 28° NW 23:38:18 10° N
UNK 4.3 23:20:29 10° W 23:36:07 67° N 23:36:58 59° NE
Cosmos 1464 Rocket 4.3 23:39:00 62° W 23:39:11 62° WNW 23:45:30 10° N
Cosmos 2360 Rocket 2.9 23:42:34 51° WNW 23:42:34 51° WNW 23:48:06 10° NNE
Cosmos 1844 4.3 23:37:25 10° NNW 23:41:49 53° N 23:41:49 53° N
Terra 3.4 23:47:05 31° WNW 23:47:05 31° WNW 23:50:07 10° NNW
Nadezhda 4 Rocket 4.2 23:39:53 10° N 23:45:28 70° NNW 23:45:28 70° NNW
Lacrosse 4 Rocket 3.8 23:57:51 21° N 23:57:51 21° N 23:59:35 10° NNE
